sat.trackr.live / text

‹ back to catalog

QIANFAN-67

NORAD 62797 · 2025-016N

PAYLOAD ACTIVE UNKNOWN

§ Identity

Operator
Country
PRC
Launch date
2025-01-23
Launch site
TAISC
Launch vehicle
Mass (kg)
RCS (m²)

External: N2YO · Heavens-Above · Gunter

§ Orbital elements

Epoch: 2026-05-25T03:32:04.161696Z

Period
106.59 min
Inclination
88.9726°
Eccentricity
0.0012899
Mean motion
13.51013696 rev/d
Perigee alt
1,058.9 km
Apogee alt
1,078.1 km
Semi-major
7,446.7 km
B*
1.5536e-4
RAAN
86.0956°
Arg perigee
229.3795°
Mean anomaly
130.6235°
Rev number
6,932

§ Raw data

QIANFAN-671 62797U 25016N   26145.14727039  .00000112  00000+0  15536-3 0  99922 62797  88.9726  86.0956 0012899 229.3795 130.6235 13.51013696 69328

JSON: /api/v1/satellites/62797 · /tle

For live sub-satellite position, see the globe view (requires WebGL).

§ Visibility from observer

Set your observer location to see the next 7 days of passes ≥ 10°. The values pass through the URL so the page stays shareable.

No JS? Fill the form by hand. The geolocation button needs JavaScript.